Vertical_Velocity
-3 -7 -7 -4 -4 -2 -5 -5 -6 -3 -2 -0 -5 -2 -2 -0 -4 -12 -5 25 1 -1 3 4 2 0 -2 1 1 6 -11 -0 6 2 1 2 -3 -1 -2 -3 -0 -0 1 -0 0
-2 -4 -3 -5 -3 -1 1 -2 -4 2 1 0 -0 -4 -4 2 -3 -5 4 4 -4 4 7 8 8 7 -1 -3 -2 -9 -2 5 2 1 2 0 -3 -2 -2 -2 0 0 -0 -1 -1
-9 -12 -2 -4 -8 2 1 -7 -4 -3 -8 -8 -6 -1 3 9 4 -1 7 3 -1 6 11 4 -1 -3 1 0 1 -6 5 10 0 3 0 0 -3 -1 -1 -3 1 -1 -1 -1 1
-11 1 -11 -5 -6 1 -3 -3 -5 -5 1 -1 -1 6 -2 5 -0 8 6 5 2 3 3 3 0 -1 -0 -1 -1 2 2 3 2 2 2 0 -2 -1 -2 0 -0 1 1 -1 -1
-9 -5 -2 -1 -1 -1 -2 -5 -5 -6 -2 3 1 1 6 5 0 4 9 2 5 3 -2 5 3 1 9 1 8 -1 5 5 3 1 -0 -1 -2 -3 -2 -1 -0 1 0 0 1
-0 -1 -1 2 1 -5 1 -4 -2 -1 -7 1 4 -1 -0 -3 -4 5 4 -5 -3 11 13 -1 3 8 4 7 4 7 5 4 2 1 -2 -3 -2 -2 0 1 0 0 -0 -0 -0
0 -1 -1 1 0 1 -2 -5 -3 2 3 -0 -5 1 2 -3 0 3 -3 -1 3 6 3 5 11 2 2 13 1 10 2 3 -0 -1 -1 -0 -6 -2 -1 -0 -0 0 -1 -1 0
-1 1 -0 -3 -1 1 4 -1 2 -3 -1 -1 8 2 0 5 -1 1 -0 1 11 11 23 0 2 -1 2 3 0 6 5 -3 -4 -1 -0 -2 2 0 1 2 -0 -0 0 -1 0
2 1 -1 -1 -1 2 -0 1 -1 -3 1 7 3 2 6 2 3 -5 -2 -3 14 13 5 4 3 3 3 -0 3 1 3 -2 0 -1 3 -1 1 1 -1 0 -0 1 0 -1 0
-2 1 -2 -4 -1 -2 -1 -1 -3 -2 2 4 5 9 4 7 9 0 -10 1 1 4 7 4 7 3 5 -11 -25 -6 -1 0 6 2 1 -0 1 1 1 -0 0 2 1 -0 -0
-1 -1 1 3 -0 1 -2 -2 1 -1 -4 1 -4 6 12 1 4 -9 -5 -2 -2 1 7 -3 5 -8 11 7 2 14 12 5 3 -2 -2 2 1 -0 1 1 0 1 0 -0 -1
-1 -1 -0 -1 -0 0 -1 0 2 -0 -2 -2 2 3 2 1 3 -3 4 -1 5 5 -3 8 13 1 4 4 5 2 3 1 1 0 -1 1 -0 1 1 1 0 -0 -1 -0 -0
-2 0 -1 -1 -2 -4 0 1 2 1 -1 -2 2 3 6 3 4 5 7 3 12 10 -0 19 6 6 2 3 2 3 -0 0 5 1 -1 0 -2 2 1 0 0 -0 1 2 1
-0 0 1 -1 -2 -1 -1 -0 0 1 -0 -1 -3 12 1 3 2 -1 1 17 10 4 -2 16 10 10 4 2 3 3 0 -1 -1 -1 -1 -1 1 -1 1 -0 -0 1 1 1 -0
-2 -0 -2 -3 -0 0 -1 0 -2 -3 -1 4 3 1 1 2 7 5 7 6 7 3 1 4 4 7 4 3 2 1 0 2 1 0 -1 -1 -5 -1 -1 0 2 0 -0 -1 0
-1 -1 -0 -2 -2 -1 -3 1 -2 -1 -3 -3 -0 -0 -1 6 0 2 -1 -0 -0 1 -1 3 6 4 3 -0 1 1 -1 -0 -1 -0 -5 -1 -4 7 -0 5 -1 1 -1 -1 -0
0 -2 -1 1 -1 -0 0 1 -2 0 -4 -1 -0 -0 -1 -2 -0 2 2 0 2 -4 -0 -1 11 7 2 -2 -0 0 -1 -1 -2 -9 -2 1 -8 14 -1 1 -0 -0 0 -0 -1
1 -0 -3 -3 1 -0 -2 2 0 -2 -1 0 1 1 -2 1 3 0 2 4 2 -5 -1 4 -1 4 3 3 -1 -2 -2 -1 -1 -3 4 -1 -8 6 1 1 -2 -3 -2 -3 -2
-0 1 -1 -3 -3 -1 1 9 -8 -1 -3 -2 1 -0 2 3 4 2 1 2 -1 -1 -3 7 4 4 2 -2 -3 -3 -5 -1 -2 -3 0 -4 -0 1 1 -2 -2 -0 -2 -2 -1
0 -2 -1 0 -2 -6 3 -2 -5 -2 -2 -1 -2 -1 3 2 3 4 3 -0 -2 -4 3 8 6 3 2 -1 -3 -1 -2 -5 -1 -4 -3 -2 1 -2 -0 -0 -1 -2 -2 -1 -1
-1 2 -1 -1 0 -0 -0 -3 -2 -1 -1 -1 -2 -6 -2 -1 2 5 6 2 2 -2 4 3 5 1 -0 -1 -2 -3 -1 -4 -2 -4 -1 -1 -0 1 2 0 -1 -1 -1 -2 -0
-2 3 1 -1 1 -3 -0 -0 -1 -2 -0 -0 1 1 1 1 -2 1 2 6 3 -0 3 6 2 1 -1 -1 -1 -2 -2 -3 -3 -2 -2 -3 10 3 -0 -2 -4 -2 -0 1 -1
-1 -0 2 2 2 2 -0 0 -2 -1 -3 -2 -1 1 3 3 1 1 -0 1 3 2 1 3 2 2 2 1 1 -1 -2 -1 -1 0 6 -5 9 -5 -2 -5 -3 -0 0 -3 -2
1 0 0 1 1 1 1 2 1 0 -1 -0 -1 -1 -1 1 2 2 1 -0 -2 -1 -0 1 2 2 1 1 1 1 -1 -1 -1 -1 -4 9 1 -0 -6 -3 -1 -5 -0 3 2
-1 -0 -0 1 1 1 1 -1 1 1 1 2 1 -0 -1 -1 -1 -2 -1 -0 -1 -1 -1 -1 -1 -2 -2 -1 -1 -0 -1 -2 -1 -4 -3 4 3 -2 -2 -3 -3 -3 -2 -1 -1
-0 -1 1 -1 0 1 1 1 0 -0 1 -0 0 2 1 1 0 -1 -0 -0 -1 -2 -2 -2 -2 -1 -2 -3 -3 -2 -4 -3 -2 -3 -3 -5 9 -5 5 2 1 1 -0 -1 -0
-0 1 1 1 -1 -0 1 1 1 1 2 1 0 1 1 -0 0 2 3 2 1 -0 -1 -1 -0 -0 -2 -2 -1 2 -4 -4 -4 -4 -2 -4 -6 -1 -2 0 0 3 3 1 1
Height
5705 5697 5690 5684 5678 5673 5671 5669 5666 5662 5658 5657 5658 5659 5662 5665 5666 5671 5684 5699 5706 5724 5743 5756 5769 5780 5791 5801 5810 5819 5826 5833 5844 5852 5858 5862 5866 5869 5871 5872 5873 5874 5875 5877 5878
5704 5696 5688 5681 5676 5671 5667 5663 5655 5644 5638 5636 5636 5639 5643 5647 5651 5659 5672 5679 5689 5708 5727 5741 5755 5768 5781 5792 5801 5809 5818 5828 5839 5847 5853 5857 5861 5865 5867 5868 5869 5871 5872 5874 5876
5703 5694 5685 5678 5672 5666 5661 5653 5643 5633 5629 5626 5624 5625 5627 5630 5635 5647 5658 5667 5676 5689 5707 5724 5740 5756 5771 5783 5794 5803 5812 5823 5833 5840 5847 5852 5856 5860 5862 5864 5866 5867 5869 5871 5873
5702 5691 5683 5676 5670 5663 5655 5647 5638 5630 5624 5620 5618 5618 5617 5619 5629 5640 5649 5658 5666 5678 5692 5711 5728 5745 5760 5774 5785 5796 5804 5816 5827 5834 5841 5846 5851 5854 5857 5861 5862 5864 5866 5868 5869
5699 5690 5682 5675 5667 5661 5653 5643 5636 5630 5623 5619 5615 5614 5616 5618 5623 5634 5644 5650 5660 5674 5682 5700 5719 5736 5751 5764 5777 5787 5798 5810 5820 5828 5835 5841 5846 5849 5852 5855 5858 5860 5862 5864 5865
5695 5686 5679 5672 5664 5659 5651 5642 5634 5627 5622 5619 5617 5616 5618 5621 5624 5632 5640 5645 5656 5664 5676 5689 5710 5726 5741 5757 5769 5780 5791 5803 5814 5823 5830 5836 5840 5843 5847 5851 5854 5857 5859 5860 5862
5691 5683 5674 5668 5662 5655 5647 5640 5634 5626 5622 5617 5616 5617 5620 5623 5627 5631 5636 5643 5648 5662 5673 5684 5699 5716 5734 5749 5763 5775 5787 5797 5808 5816 5824 5830 5834 5837 5842 5846 5849 5853 5855 5857 5858
5686 5679 5670 5662 5656 5650 5644 5636 5632 5626 5621 5617 5615 5616 5618 5620 5624 5629 5634 5640 5644 5653 5666 5674 5691 5709 5727 5744 5756 5769 5781 5792 5802 5810 5817 5824 5829 5834 5838 5841 5845 5849 5851 5853 5854
5684 5676 5667 5659 5652 5647 5642 5634 5628 5626 5621 5620 5615 5613 5615 5617 5621 5627 5631 5634 5644 5651 5661 5673 5685 5704 5722 5737 5750 5764 5776 5785 5796 5805 5812 5818 5823 5828 5833 5837 5840 5844 5846 5848 5850
5683 5676 5668 5660 5654 5648 5641 5634 5629 5626 5625 5623 5618 5617 5615 5619 5622 5628 5633 5639 5646 5654 5662 5673 5685 5703 5718 5730 5746 5762 5771 5781 5792 5801 5807 5813 5820 5825 5829 5833 5835 5839 5842 5844 5845
5684 5676 5669 5664 5658 5651 5644 5636 5635 5632 5630 5628 5624 5620 5620 5623 5626 5632 5636 5642 5648 5657 5666 5676 5687 5705 5724 5736 5745 5760 5773 5782 5792 5798 5805 5810 5816 5821 5824 5828 5831 5834 5836 5839 5841
5686 5678 5671 5666 5659 5653 5646 5641 5639 5637 5635 5633 5631 5628 5628 5627 5631 5634 5639 5647 5652 5658 5669 5680 5688 5705 5721 5734 5745 5756 5769 5779 5788 5796 5802 5807 5812 5815 5819 5823 5826 5830 5832 5835 5836
5689 5681 5674 5668 5662 5656 5651 5647 5644 5642 5640 5640 5638 5637 5637 5636 5638 5640 5645 5650 5657 5665 5674 5684 5690 5706 5722 5734 5745 5755 5765 5775 5785 5792 5798 5802 5806 5810 5815 5819 5822 5825 5828 5830 5831
5693 5685 5679 5672 5667 5661 5656 5652 5649 5648 5647 5646 5645 5646 5644 5643 5645 5648 5653 5660 5664 5672 5680 5690 5692 5707 5723 5735 5747 5756 5765 5773 5781 5788 5794 5798 5803 5806 5811 5815 5818 5821 5823 5824 5825
5698 5690 5684 5677 5672 5667 5663 5657 5654 5652 5652 5653 5651 5651 5649 5651 5653 5656 5662 5666 5672 5679 5688 5696 5696 5709 5724 5736 5747 5757 5765 5773 5780 5786 5792 5796 5799 5804 5808 5811 5814 5815 5816 5818 5819
5704 5697 5690 5684 5679 5674 5669 5665 5661 5659 5656 5657 5657 5656 5657 5658 5661 5664 5667 5673 5678 5685 5693 5700 5703 5715 5727 5739 5748 5757 5765 5772 5779 5784 5789 5794 5797 5804 5806 5809 5809 5810 5811 5812 5812
5709 5703 5697 5691 5687 5681 5677 5673 5670 5666 5666 5667 5665 5664 5664 5666 5669 5673 5677 5681 5687 5693 5700 5703 5710 5720 5730 5741 5750 5759 5765 5772 5778 5782 5787 5792 5794 5803 5803 5804 5804 5804 5805 5806 5805
5715 5709 5703 5698 5693 5688 5685 5683 5679 5676 5674 5673 5673 5673 5674 5675 5677 5681 5684 5688 5694 5701 5707 5710 5716 5724 5734 5745 5753 5760 5766 5772 5778 5782 5787 5790 5792 5798 5798 5798 5798 5799 5799 5799 5798
5721 5715 5709 5704 5700 5696 5693 5692 5687 5684 5683 5682 5681 5681 5683 5684 5686 5688 5692 5695 5701 5708 5713 5715 5722 5730 5739 5747 5755 5761 5767 5773 5777 5780 5784 5787 5791 5793 5792 5793 5793 5794 5793 5792 5790
5726 5721 5715 5710 5706 5703 5701 5698 5694 5692 5691 5691 5691 5691 5691 5692 5694 5695 5699 5703 5709 5714 5717 5722 5728 5734 5742 5750 5757 5762 5768 5773 5776 5779 5782 5785 5786 5787 5788 5788 5788 5787 5785 5783 5781
5730 5726 5722 5717 5712 5710 5708 5705 5702 5699 5699 5699 5698 5699 5700 5701 5702 5704 5706 5710 5715 5720 5723 5727 5733 5740 5746 5752 5757 5763 5767 5771 5774 5777 5778 5781 5782 5781 5781 5781 5779 5778 5776 5773 5771
5735 5732 5726 5722 5720 5715 5712 5710 5708 5707 5706 5705 5706 5706 5707 5708 5710 5712 5714 5717 5720 5724 5728 5732 5737 5742 5748 5753 5757 5761 5765 5768 5770 5773 5773 5774 5776 5775 5774 5773 5770 5767 5765 5763 5761
5739 5735 5731 5727 5724 5721 5718 5715 5713 5712 5712 5712 5712 5713 5714 5715 5717 5719 5721 5724 5726 5729 5733 5736 5740 5744 5748 5754 5756 5759 5762 5764 5765 5766 5769 5767 5769 5767 5765 5762 5760 5757 5756 5755 5754
5741 5738 5736 5732 5729 5726 5723 5721 5719 5717 5716 5716 5717 5718 5719 5720 5721 5724 5726 5729 5732 5734 5737 5739 5742 5745 5749 5752 5755 5757 5758 5759 5760 5762 5761 5762 5761 5758 5756 5752 5752 5752 5750 5747 5744
5742 5740 5738 5735 5733 5730 5728 5726 5724 5723 5722 5722 5721 5722 5723 5724 5725 5727 5729 5731 5734 5736 5739 5742 5744 5747 5749 5751 5753 5754 5755 5756 5756 5755 5755 5757 5755 5752 5749 5747 5744 5742 5739 5737 5733
5741 5740 5739 5737 5735 5733 5732 5730 5729 5728 5727 5727 5727 5726 5726 5727 5728 5730 5732 5734 5736 5738 5739 5741 5744 5746 5748 5750 5751 5752 5752 5752 5752 5751 5751 5749 5750 5744 5741 5738 5735 5731 5729 5726 5722
5740 5739 5739 5738 5737 5736 5735 5733 5732 5732 5731 5731 5730 5730 5730 5731 5731 5732 5733 5734 5736 5738 5740 5741 5743 5745 5746 5746 5747 5748 5746 5746 5745 5743 5741 5740 5738 5735 5732 5728 5724 5721 5717 5713 5709